This demonstration page uses our WeatherBlox Daily Observations layout. Learn more.

Hourly Observations for May 16, 2015

Temp ( °F °C ) Dew Point ( °F °C ) Humidity (%) Winds ( mph kmh ) Pressure ( in mb ) Visibility ( mi km ) Precip ( " mm )
12:15 am 00:15 Clear 66 18.8 62 16.5 87 87 SSE 22 35 29.65 1004 10 16.0934 0 0
12:35 am 00:35 Clear 66 18.7 62 16.5 87 87 SSE 22 35 29.65 1004 10 16.0934 0 0
12:55 am 00:55 Clear 65 18.6 62 16.5 88 88 SSE 18 30 29.65 1004 10 16.0934 0 0
1:15 am 01:15 Clear 65 18.6 62 16.5 88 88 SSE 16 26 29.65 1004 10 16.0934 0 0
1:35 am 01:35 Mostly Cloudy 66 19 62 16.6 86 86 S 9 15 29.65 1004 10 16.0934 0 0
1:55 am 01:55 Mostly Cloudy 65 18.1 59 15.1 83 83 S 17 28 29.65 1004 10 16.0934 0.01 0.254
2:15 am 02:15 Mostly Cloudy with Thunderstorms 62 16.7 57 13.9 84 84 S 20 31 29.65 1004 7 11.26538 0.02 0.508
2:35 am 02:35 Cloudy with Thunderstorms 61 16.1 56 13.3 84 84 S 25 41 29.68 1005 7 11.26538 0.05 1.27
2:55 am 02:55 Mostly Cloudy with Light Thunderstorms 60 15.7 55 12.9 84 84 SSE 15 24 29.68 1005 10 16.0934 0.06 1.524
3:15 am 03:15 Partly Cloudy with Nearby Thunderstorms 62 16.4 56 13.4 83 83 S 12 19 29.65 1004 10 16.0934 0 0
3:35 am 03:35 Partly Cloudy 62 16.8 58 14.6 87 87 S 10 17 29.62 1003 10 16.0934 0 0
3:55 am 03:55 Mostly Cloudy with Light Rain 62 16.8 59 15 89 89 SE 7 11 29.65 1004 10 16.0934 0 0
4:15 am 04:15 Mostly Cloudy 62 16.4 59 14.9 91 91 SSE 5 7 29.65 1004 10 16.0934 0.01 0.254
4:35 am 04:35 Partly Cloudy with Light Rain 63 17.1 60 15.8 92 92 SW 9 15 29.62 1003 10 16.0934 0.01 0.254
4:55 am 04:55 Clear 63 17.2 60 15.7 91 91 SSE 13 20 29.65 1004 10 16.0934 0.01 0.254
5:15 am 05:15 Partly Cloudy with Light Drizzle 63 17.2 60 15.8 92 92 SSE 7 11 29.62 1003 10 16.0934 0 0
5:35 am 05:35 Mostly Cloudy 63 17 60 15.7 92 92 SE 9 15 29.62 1003 10 16.0934 0 0
5:55 am 05:55 Partly Cloudy 62 16.8 60 15.6 93 93 SSE 12 19 29.62 1003 10 16.0934 0 0
6:15 am 06:15 Clear 62 16.5 59 15.2 92 92 SSE 12 19 29.62 1003 10 16.0934 0 0
6:35 am 06:35 Sunny 62 16.5 59 15 91 91 S 13 20 29.65 1004 10 16.0934 0 0
6:55 am 06:55 Sunny 62 16.5 58 14.5 88 88 S 14 22 29.65 1004 10 16.0934 0 0
7:15 am 07:15 Sunny 62 16.5 56 13.3 82 82 S 15 24 29.65 1004 10 16.0934 0 0
7:35 am 07:35 Sunny 61 16.3 55 13 81 81 SSW 12 19 29.68 1005 10 16.0934 0 0
7:55 am 07:55 Sunny 61 16 56 13.1 83 83 S 12 19 29.68 1005 10 16.0934 0 0
8:15 am 08:15 Sunny 61 16.2 55 12.7 80 80 SE 21 33 29.65 1004 10 16.0934 0.01 0.254
8:35 am 08:35 Sunny 62 16.5 53 11.7 73 73 SW 12 19 29.62 1003 10 16.0934 0.01 0.254
8:55 am 08:55 Sunny 62 16.6 53 11.8 73 73 SW 14 22 29.65 1004 10 16.0934 0.01 0.254
9:15 am 09:15 Sunny 62 16.7 55 12.5 76 76 SW 13 20 29.65 1004 10 16.0934 0 0
9:35 am 09:35 Sunny 63 17.2 55 12.6 75 75 SSW 16 26 29.65 1004 10 16.0934 0 0
9:55 am 09:55 Sunny 64 17.9 55 12.5 71 71 S 9 15 29.65 1004 10 16.0934 0 0
10:15 am 10:15 Sunny 65 18.5 54 12.4 68 68 S 12 19 29.65 1004 10 16.0934 0 0
10:35 am 10:35 Sunny 66 18.9 55 12.7 67 67 S 13 20 29.65 1004 10 16.0934 0 0
10:55 am 10:55 Sunny 65 18.6 56 13.1 71 71 S 16 26 29.65 1004 10 16.0934 0 0
11:15 am 11:15 Sunny 66 18.8 56 13.5 71 71 S 20 31 29.65 1004 10 16.0934 0 0
11:35 am 11:35 Sunny 66 19.1 55 13 68 68 S 17 28 29.65 1004 10 16.0934 0 0
11:55 am 11:55 Sunny 67 19.5 55 12.5 64 64 S 17 28 29.62 1003 10 16.0934 0 0
12:15 pm 12:15 Sunny 69 20.3 55 12.6 61 61 SSW 21 33 29.62 1003 10 16.0934 0 0
12:35 pm 12:35 Sunny 68 20.1 55 12.9 63 63 SSW 26 43 29.65 1004 10 16.0934 0 0
12:55 pm 12:55 Sunny 69 20.6 56 13.2 63 63 S 25 41 29.59 1002 10 16.0934 0 0
1:15 pm 13:15 Sunny 70 21.3 55 13 59 59 SSW 24 39 29.59 1002 10 16.0934 0 0
1:35 pm 13:35 Partly Cloudy 70 21.3 56 13.1 60 60 S 20 31 29.59 1002 10 16.0934 0 0
1:55 pm 13:55 Sunny 70 21 55 12.7 59 59 SSW 22 35 29.59 1002 10 16.0934 0 0
2:15 pm 14:15 Partly Cloudy 69 20.8 56 13.1 62 62 S 23 37 29.59 1002 10 16.0934 0 0
2:35 pm 14:35 Partly Cloudy 69 20.3 56 13.2 64 64 S 18 30 29.62 1003 10 16.0934 0 0
2:55 pm 14:55 Partly Cloudy 68 20.1 56 13.4 66 66 S 16 26 29.62 1003 10 16.0934 0 0
3:15 pm 15:15 Mostly Cloudy 67 19.7 56 13.5 68 68 S 21 33 29.62 1003 10 16.0934 0 0
3:35 pm 15:35 Partly Cloudy 67 19.7 56 13.1 66 66 S 22 35 29.62 1003 10 16.0934 0 0
3:55 pm 15:55 Sunny 68 20 56 13.3 65 65 S 23 37 29.62 1003 10 16.0934 0 0
4:15 pm 16:15 Sunny 67 19.7 55 13 65 65 S 21 33 29.62 1003 10 16.0934 0 0
4:35 pm 16:35 Sunny 67 19.7 55 12.8 65 65 S 25 41 29.62 1003 10 16.0934 0 0
4:55 pm 16:55 Sunny 68 20 53 11.9 60 60 SSE 25 41 29.62 1003 10 16.0934 0 0
5:15 pm 17:15 Sunny 69 20.6 54 12.4 60 60 SSE 24 39 29.56 1001 10 16.0934 0 0
5:35 pm 17:35 Sunny 69 20.4 55 12.5 61 61 SSE 22 35 29.56 1001 10 16.0934 0 0
5:55 pm 17:55 Sunny 68 20 53 11.9 60 60 SE 23 37 29.53 1000 10 16.0934 0 0
6:15 pm 18:15 Sunny 68 20 53 11.6 59 59 SE 25 41 29.56 1001 10 16.0934 0 0
6:35 pm 18:35 Sunny 68 20.1 53 11.9 59 59 SSE 21 33 29.53 1000 10 16.0934 0 0
6:55 pm 18:55 Sunny 67 19.6 54 12 62 62 SSE 18 30 29.53 1000 10 16.0934 0 0
7:15 pm 19:15 Sunny 67 19.4 52 11.1 59 59 S 24 39 29.59 1002 10 16.0934 0 0
7:35 pm 19:35 Sunny 65 18.6 53 11.7 64 64 S 16 26 29.62 1003 10 16.0934 0 0
7:55 pm 19:55 Mostly Cloudy 65 18.5 55 12.5 68 68 S 20 31 29.62 1003 10 16.0934 0 0
8:15 pm 20:15 Cloudy with Heavy Rain 62 16.9 52 11.1 69 69 W 23 37 29.65 1004 7 11.26538 0.04 1.016
8:35 pm 20:35 Cloudy with Rain 55 13 52 10.9 87 87 WSW 10 17 29.65 1004 5 8.0467 0.1 2.54
8:55 pm 20:55 Cloudy with Light Rain 55 13 52 11.2 89 89 WSW 6 9 29.65 1004 10 16.0934 0.12 3.048
9:15 pm 21:15 Mostly Cloudy 56 13.2 52 11.1 87 87 SSW 8 13 29.65 1004 10 16.0934 0 0
9:35 pm 21:35 Mostly Cloudy 56 13.2 52 11.1 87 87 SW 8 13 29.65 1004 10 16.0934 0 0
9:55 pm 21:55 Cloudy with Light Rain 56 13.3 52 11 86 86 SSW 10 17 29.71 1006 10 16.0934 0 0
10:15 pm 22:15 Cloudy 56 13.4 52 11.3 87 87 SSW 7 11 29.71 1006 10 16.0934 0 0
10:35 pm 22:35 Partly Cloudy with Light Drizzle 56 13.1 52 11.2 88 88 E 12 19 29.62 1003 10 16.0934 0 0
10:55 pm 22:55 Partly Cloudy 55 13 52 11.1 88 88 SE 5 7 29.59 1002 10 16.0934 0 0
11:15 pm 23:15 Partly Cloudy 56 13.2 52 10.9 86 86 ESE 7 11 29.59 1002 10 16.0934 0 0
11:35 pm 23:35 Partly Cloudy 56 13.1 51 10.5 84 84 NE 13 20 29.53 1000 10 16.0934 0 0
11:55 pm 23:55 Clear 56 13.3 50 10.2 82 82 SE 10 17 29.56 1001 10 16.0934 0 0

Powered by AerisWeather